Wind_Speed
110 108 103 92 87 78 65 59 49 48 41 36 35 27 25 24 24 24 28 29 29 30 32 25 22 22 18 14 15 21 27 32 39 47 56 69 80 87 88 87 82 88 86 80
110 109 101 89 82 73 68 62 54 45 41 35 33 29 27 25 23 23 24 26 25 27 25 22 17 17 16 13 10 15 21 28 36 42 51 63 75 84 90 87 82 83 89 83
111 103 95 86 77 72 67 60 56 47 37 36 32 29 29 26 23 22 20 21 23 22 25 23 19 19 17 13 9 11 16 23 33 40 47 56 66 76 82 83 83 80 86 87
107 97 87 82 74 69 66 59 54 43 35 33 33 30 29 27 24 21 18 16 18 18 21 21 22 19 15 13 7 9 14 20 27 34 41 49 58 65 73 76 81 81 82 88
103 92 81 80 75 69 62 54 49 40 33 32 32 29 29 25 24 22 18 14 14 15 17 17 20 16 15 10 5 3 9 16 23 32 39 43 48 56 63 70 72 82 81 84
97 84 76 77 73 67 59 50 42 37 33 32 33 31 29 25 24 24 20 15 12 12 13 16 17 17 17 12 8 10 4 9 17 24 32 36 41 45 52 61 67 74 81 82
91 82 77 75 69 63 54 45 37 33 31 32 33 33 30 25 24 24 22 16 12 12 12 13 17 12 15 13 16 16 14 8 11 13 19 24 30 36 40 47 54 61 72 82
85 81 74 70 67 55 48 39 32 26 27 32 35 37 33 27 25 25 24 21 16 11 9 10 11 9 9 10 13 15 15 14 13 9 7 11 15 20 23 28 36 44 54 63
84 81 76 66 60 50 45 39 31 28 26 32 35 39 37 31 27 27 26 25 21 15 10 8 7 5 4 4 6 10 12 14 12 11 9 9 5 6 7 12 18 25 33 41
80 81 73 60 56 48 42 40 33 34 29 32 37 39 41 36 32 32 29 28 26 21 16 11 6 3 1 2 3 4 6 7 7 12 12 9 3 2 7 12 14 15 19 23
81 73 65 64 53 47 38 39 37 36 35 35 38 42 44 43 39 36 34 32 31 28 23 18 12 9 6 3 3 4 6 6 5 4 5 5 5 7 9 13 13 14 17 21
74 67 60 60 53 42 39 37 40 39 38 37 39 45 49 49 47 43 39 36 36 34 31 25 20 16 14 11 9 7 6 6 9 13 12 10 10 10 12 13 16 17 18 19
64 64 56 50 47 43 37 36 40 41 40 40 43 47 51 54 52 50 46 42 39 40 37 34 29 25 21 18 16 14 13 12 12 12 13 14 14 14 14 14 15 16 18 21
61 51 53 48 44 43 41 38 36 44 44 45 46 48 49 54 54 54 52 47 44 42 42 41 37 34 30 26 24 22 21 20 19 18 18 19 20 21 22 23 24 24 25 27
59 48 43 50 46 44 42 40 40 42 47 47 49 49 48 52 55 55 52 51 47 45 44 44 44 42 38 35 32 30 29 28 27 27 27 27 28 28 29 31 32 34 36 38
53 48 44 45 46 47 44 41 41 45 44 50 50 51 48 51 54 56 56 54 54 50 47 46 45 47 45 43 40 38 37 37 36 35 35 36 37 37 39 40 41 43 44 45
51 51 45 45 46 46 49 45 42 47 45 48 51 49 50 51 55 57 58 58 56 54 50 48 46 46 48 49 47 47 46 45 44 43 43 44 45 46 46 48 49 50 51 53
48 50 50 48 46 44 45 48 45 46 48 48 50 53 51 52 55 56 58 59 58 57 56 53 49 46 47 49 49 50 50 50 50 50 51 52 53 53 54 55 55 56 57 59
49 47 46 44 42 40 33 37 42 46 50 51 50 54 55 53 54 56 58 60 58 59 59 57 55 51 48 49 48 48 50 52 54 55 56 57 58 59 59 60 61 62 63 65
51 48 42 38 37 35 29 30 37 40 46 51 53 54 56 54 52 56 58 60 61 61 60 58 57 57 54 52 50 50 50 50 52 54 56 57 58 59 60 61 62 63 65 67
51 44 39 35 31 28 25 25 33 36 39 44 52 55 57 58 55 55 56 58 60 60 62 62 59 58 58 59 59 56 54 54 56 57 59 62 63 63 64 66 67 67 67 66
44 41 33 30 25 23 22 21 30 32 35 39 45 52 57 59 58 57 56 57 58 60 64 65 64 62 63 63 62 62 62 63 64 64 64 64 63 63 66 69 69 68 69 70
42 36 30 25 23 22 19 19 25 28 31 35 40 45 53 56 58 60 58 57 58 59 62 65 67 67 67 67 66 65 64 64 64 65 65 65 65 67 69 70 70 71 72 72
35 32 28 24 19 16 16 16 21 24 27 30 35 39 44 51 57 60 60 59 59 58 61 64 65 68 70 70 70 69 67 66 67 68 69 70 72 72 73 75 75 75 75 75
31 29 26 18 15 14 12 14 17 20 22 26 30 34 39 47 55 59 60 59 60 60 59 60 64 67 68 69 71 72 72 72 72 72 73 74 76 78 78 79 80 79 78 76
26 23 21 15 11 10 10 9 11 14 18 22 26 31 35 42 50 58 60 62 61 60 60 60 61 65 67 69 71 73 74 75 77 78 80 81 82 83 82 82 81 80 79 78
19 17 17 14 12 11 8 7 7 9 13 17 21 25 30 37 46 55 59 60 61 60 57 58 59 61 65 67 69 71 72 74 77 80 80 82 82 83 83 82 80 79 78 73
Wind_Direction
333 334 335 332 328 325 323 320 320 306 299 293 278 269 271 283 296 309 312 320 330 330 327 323 322 313 306 288 265 249 238 229 222 218 216 217 219 221 223 226 225 224 227 226
332 332 331 328 325 321 318 318 316 305 291 280 270 268 275 283 291 299 306 317 331 336 331 333 333 325 322 303 281 250 235 225 219 218 219 218 218 221 225 226 225 223 225 226
329 328 328 323 322 318 315 316 310 303 291 277 264 255 262 273 282 287 296 313 324 337 330 334 337 340 341 321 292 248 229 219 216 216 217 219 223 223 227 227 227 226 225 226
326 328 326 320 320 315 313 312 307 297 285 272 260 247 255 266 276 273 284 304 325 328 332 344 346 352 354 330 286 229 218 216 212 214 218 220 225 227 229 229 228 227 228 225
324 326 324 318 316 311 309 308 303 291 275 264 252 243 248 257 266 265 270 285 312 316 338 335 341 356 9 9 342 267 208 210 210 208 214 222 226 227 229 231 230 229 230 230
322 325 318 314 312 308 308 306 297 285 271 258 247 234 240 248 254 259 262 269 293 313 328 342 339 354 4 30 51 83 136 186 199 207 213 219 226 229 232 232 232 231 229 232
324 318 317 316 311 306 307 303 292 283 270 258 244 232 237 240 244 251 253 260 277 300 328 342 349 360 9 37 55 71 79 115 155 184 204 217 227 234 238 240 240 236 233 232
317 316 315 314 310 307 302 296 281 277 265 250 239 227 232 237 239 243 246 250 254 272 301 323 329 322 345 24 61 68 73 83 90 105 153 191 208 216 224 231 238 241 241 238
316 313 314 312 306 302 292 285 270 255 248 250 242 225 226 231 236 241 241 241 245 251 270 301 309 328 295 7 26 68 86 88 102 106 114 117 148 194 230 243 246 244 244 246
314 312 312 308 302 299 288 278 268 257 241 232 237 226 224 224 230 234 236 232 238 241 245 257 276 271 118 261 304 356 44 74 82 96 90 91 79 235 256 255 258 259 254 249
311 310 308 300 301 295 282 270 264 255 246 235 230 223 220 223 225 229 231 228 229 231 235 237 240 225 211 199 200 239 241 250 202 173 155 169 187 200 213 218 221 235 239 241
307 306 302 296 298 291 281 265 261 256 249 242 231 227 218 219 221 223 226 226 225 227 229 229 230 230 228 227 222 210 196 199 216 222 225 220 224 229 237 246 252 251 252 254
305 305 298 293 288 287 277 266 258 255 248 239 235 230 225 220 219 221 222 224 224 226 225 227 227 231 228 227 230 232 232 233 230 227 225 230 235 240 250 257 265 266 262 261
305 299 294 290 284 281 277 268 257 256 250 243 237 236 230 227 223 223 223 224 226 227 228 226 227 228 230 232 231 231 232 236 240 247 250 252 251 251 252 253 259 264 271 275
301 296 289 286 283 279 275 269 261 248 249 245 242 237 234 229 227 226 227 225 226 229 231 231 230 230 230 232 234 237 242 244 246 249 253 256 259 262 264 266 269 271 275 276
298 294 291 283 280 278 272 266 257 255 245 247 239 239 234 231 231 226 226 227 226 227 232 234 235 235 233 234 237 238 241 245 248 251 254 258 260 262 265 268 269 271 273 276
298 296 292 286 281 275 272 266 257 252 244 241 245 237 234 228 229 230 226 225 228 227 228 234 236 236 239 239 238 241 243 246 249 252 256 259 261 264 266 268 271 275 279 281
301 300 297 292 285 276 268 264 258 250 247 237 234 240 233 230 229 230 229 226 226 228 228 230 234 239 241 242 245 247 249 251 253 255 258 261 264 266 269 272 274 277 279 280
304 301 299 295 289 283 271 261 254 245 240 237 231 229 235 229 228 228 229 229 226 227 230 230 233 232 239 246 249 250 252 255 258 260 261 263 266 269 272 273 275 279 281 283
309 307 302 297 289 283 274 256 249 243 237 233 231 229 228 232 227 226 227 229 228 227 230 231 234 236 233 240 245 248 251 254 257 260 262 265 267 270 273 275 278 279 281 284
311 308 306 299 292 283 272 253 250 242 237 231 227 225 226 226 228 227 227 227 230 229 230 233 234 239 242 240 241 245 249 252 255 258 261 264 268 271 273 275 277 280 282 284
309 308 306 299 294 285 273 253 246 244 238 231 228 223 222 223 226 226 226 227 228 227 229 231 236 239 242 245 246 247 248 251 255 258 261 264 268 271 273 275 278 281 284 286
309 310 310 305 299 288 278 255 247 245 239 232 228 225 222 221 222 224 225 226 227 228 230 231 233 236 241 245 248 251 252 255 258 262 266 269 271 273 275 278 281 284 287 289
310 314 314 311 303 290 274 263 248 241 236 233 229 226 223 218 220 222 223 224 226 227 229 232 235 236 240 245 249 253 256 260 262 265 268 270 273 276 279 280 283 284 287 290
310 312 312 311 302 295 282 258 249 243 236 231 226 222 220 216 216 220 222 223 225 228 230 232 236 240 242 245 249 253 256 259 262 265 269 271 273 275 278 280 283 286 290 293
309 308 311 315 310 302 291 279 261 248 239 233 225 221 217 215 213 216 219 221 224 227 230 233 235 240 245 247 249 252 256 259 263 265 268 270 273 275 278 281 285 288 291 293
303 309 318 327 331 322 313 287 265 247 238 230 222 219 218 215 213 215 217 220 224 228 231 234 238 241 245 249 252 254 256 259 261 263 266 269 273 277 280 282 285 288 293 298
Height
10476 10462 10456 10440 10426 10415 10412 10409 10409 10396 10390 10389 10386 10389 10389 10390 10388 10386 10383 10377 10370 10364 10356 10349 10342 10336 10332 10331 10330 10330 10334 10339 10346 10353 10360 10370 10380 10388 10401 10413 10428 10444 10458 10473
10464 10448 10439 10428 10413 10402 10396 10393 10391 10387 10378 10378 10378 10379 10379 10381 10380 10380 10378 10373 10366 10360 10353 10347 10341 10336 10329 10327 10326 10326 10328 10333 10339 10344 10352 10358 10366 10376 10383 10398 10414 10432 10445 10459
10453 10439 10424 10407 10399 10388 10382 10379 10374 10371 10368 10365 10369 10371 10371 10374 10374 10373 10372 10368 10363 10358 10352 10344 10339 10333 10328 10325 10323 10322 10323 10327 10332 10339 10345 10350 10358 10367 10376 10393 10407 10419 10432 10446
10430 10422 10411 10391 10386 10375 10367 10364 10359 10357 10354 10355 10357 10361 10363 10366 10366 10367 10367 10364 10360 10355 10350 10343 10338 10333 10329 10323 10321 10319 10320 10322 10327 10333 10338 10345 10352 10362 10371 10383 10396 10408 10418 10430
10405 10404 10390 10373 10365 10357 10353 10350 10343 10342 10341 10343 10346 10350 10353 10357 10359 10359 10360 10360 10357 10353 10349 10343 10339 10334 10330 10324 10320 10319 10319 10320 10323 10329 10333 10339 10346 10354 10363 10373 10385 10397 10406 10415
10390 10387 10372 10359 10348 10340 10339 10336 10329 10328 10328 10331 10334 10339 10343 10348 10351 10352 10352 10354 10353 10350 10347 10343 10339 10335 10331 10326 10322 10318 10319 10320 10322 10326 10331 10336 10340 10346 10354 10362 10371 10382 10393 10403
10373 10359 10353 10341 10331 10324 10326 10323 10316 10316 10318 10321 10324 10330 10334 10339 10343 10345 10346 10348 10348 10347 10345 10342 10340 10337 10333 10330 10325 10322 10323 10323 10325 10328 10332 10336 10339 10343 10349 10355 10363 10371 10380 10388
10353 10338 10335 10327 10315 10314 10309 10306 10304 10305 10307 10309 10312 10319 10324 10329 10333 10336 10338 10340 10342 10343 10342 10341 10339 10337 10336 10332 10330 10329 10328 10327 10327 10329 10332 10334 10338 10341 10344 10349 10353 10359 10366 10374
10330 10318 10315 10311 10300 10299 10293 10291 10291 10290 10293 10297 10301 10307 10313 10318 10322 10326 10330 10333 10335 10337 10338 10338 10337 10336 10334 10334 10333 10333 10333 10332 10331 10332 10333 10335 10338 10339 10342 10345 10349 10354 10359 10365
10314 10297 10294 10289 10283 10283 10280 10278 10279 10279 10280 10282 10287 10294 10301 10306 10310 10314 10319 10324 10327 10330 10332 10334 10335 10334 10333 10332 10332 10333 10333 10335 10335 10334 10336 10337 10338 10341 10343 10345 10348 10350 10352 10355
10289 10285 10278 10264 10272 10268 10267 10265 10266 10266 10268 10271 10274 10278 10286 10293 10297 10302 10307 10312 10317 10321 10324 10328 10330 10332 10332 10332 10332 10332 10333 10334 10335 10337 10338 10339 10341 10343 10344 10346 10347 10348 10350 10352
10273 10268 10263 10250 10251 10254 10253 10253 10252 10254 10256 10260 10262 10266 10270 10276 10283 10289 10295 10301 10306 10312 10316 10320 10323 10326 10328 10329 10331 10331 10331 10333 10334 10335 10337 10338 10339 10340 10342 10343 10345 10346 10348 10349
10257 10248 10242 10239 10234 10234 10240 10240 10239 10240 10244 10247 10249 10252 10257 10262 10268 10276 10282 10288 10295 10300 10306 10311 10314 10318 10321 10324 10326 10327 10329 10331 10332 10333 10334 10336 10336 10338 10339 10340 10342 10343 10345 10346
10239 10236 10222 10222 10222 10221 10222 10224 10228 10227 10229 10233 10236 10239 10245 10252 10259 10265 10270 10277 10283 10290 10295 10301 10305 10308 10313 10316 10319 10321 10323 10325 10328 10329 10331 10332 10333 10335 10336 10337 10338 10339 10339 10338
10217 10217 10214 10202 10205 10205 10206 10209 10211 10211 10213 10219 10223 10226 10233 10240 10246 10253 10261 10268 10273 10279 10284 10289 10295 10299 10303 10307 10310 10313 10315 10317 10319 10321 10323 10324 10325 10326 10327 10328 10328 10329 10329 10329
10199 10197 10197 10191 10187 10186 10187 10191 10193 10194 10200 10201 10205 10212 10221 10227 10231 10239 10247 10255 10261 10267 10274 10278 10283 10289 10294 10298 10301 10303 10306 10308 10310 10312 10314 10315 10316 10317 10318 10318 10318 10318 10318 10318
10182 10175 10176 10173 10169 10167 10165 10170 10175 10174 10180 10186 10190 10198 10205 10212 10216 10223 10232 10240 10248 10256 10262 10267 10272 10277 10282 10286 10290 10293 10295 10298 10300 10302 10303 10304 10304 10305 10306 10305 10305 10305 10305 10303
10167 10159 10153 10150 10148 10146 10147 10148 10154 10157 10161 10167 10175 10180 10188 10196 10203 10210 10218 10227 10236 10244 10249 10255 10260 10265 10269 10273 10278 10282 10284 10286 10289 10290 10291 10291 10291 10291 10292 10292 10292 10292 10290 10288
10150 10143 10137 10131 10127 10124 10129 10130 10131 10135 10139 10147 10156 10162 10169 10179 10188 10196 10204 10212 10222 10228 10234 10242 10247 10255 10258 10261 10265 10268 10271 10273 10275 10276 10276 10276 10277 10277 10278 10278 10278 10277 10275 10272
10129 10123 10118 10114 10111 10110 10111 10112 10112 10116 10121 10128 10137 10147 10154 10162 10173 10180 10189 10197 10206 10213 10223 10230 10235 10239 10246 10249 10252 10255 10258 10260 10261 10261 10261 10261 10261 10262 10262 10261 10261 10260 10259 10256
10113 10107 10103 10099 10096 10095 10096 10098 10097 10100 10105 10112 10119 10129 10139 10147 10156 10166 10175 10183 10191 10202 10209 10215 10222 10226 10229 10234 10237 10241 10243 10245 10246 10246 10246 10246 10248 10249 10247 10244 10243 10243 10242 10239
10099 10095 10092 10088 10085 10084 10084 10085 10084 10088 10092 10098 10104 10113 10122 10133 10143 10151 10160 10168 10177 10186 10193 10200 10207 10211 10211 10213 10219 10224 10228 10229 10229 10230 10231 10232 10234 10232 10229 10226 10226 10225 10223 10220
10089 10085 10081 10078 10076 10075 10074 10075 10075 10078 10081 10086 10091 10098 10107 10119 10130 10137 10146 10154 10162 10171 10178 10185 10191 10196 10197 10199 10202 10206 10210 10213 10214 10215 10216 10217 10216 10214 10212 10210 10209 10206 10204 10202
10080 10076 10073 10070 10068 10066 10066 10067 10068 10069 10072 10077 10081 10088 10096 10105 10116 10123 10132 10139 10147 10156 10163 10169 10175 10180 10184 10186 10189 10191 10195 10198 10199 10199 10199 10198 10197 10197 10195 10192 10190 10188 10186 10184
10073 10069 10066 10064 10062 10060 10060 10061 10061 10063 10066 10069 10073 10079 10085 10094 10103 10113 10121 10129 10134 10142 10150 10158 10163 10166 10170 10174 10176 10178 10181 10182 10182 10182 10182 10181 10179 10176 10175 10173 10170 10169 10166 10164
10068 10065 10062 10060 10058 10056 10055 10056 10057 10058 10060 10063 10067 10071 10077 10083 10092 10101 10109 10116 10123 10131 10138 10145 10150 10154 10157 10160 10162 10164 10166 10167 10167 10166 10164 10162 10160 10158 10156 10154 10153 10150 10148 10145
10065 10063 10060 10057 10055 10054 10053 10052 10053 10054 10056 10058 10061 10066 10071 10076 10082 10090 10098 10106 10113 10121 10130 10135 10139 10143 10145 10146 10147 10149 10150 10150 10148 10146 10146 10144 10142 10141 10139 10137 10134 10132 10130 10128